QPF
0.00 0.00 0.00 0.02 0.02 0.02 0.02 0.03 0.03 0.02 0.01 0.01 0.01 0.01 0.01 0.01 0.00 0.00 0.00 0.00 0.00 0.01 0.02 0.02 0.02 0.01 0.01 0.02 0.02 0.02 0.03 0.03 0.04 0.05 0.04 0.05 0.04 0.04 0.06 0.11 0.14 0.06 0.02
0.00 0.00 0.00 0.01 0.02 0.02 0.02 0.02 0.03 0.02 0.01 0.01 0.01 0.01 0.01 0.01 0.01 0.01 0.00 0.00 0.01 0.01 0.01 0.01 0.02 0.01 0.02 0.03 0.03 0.03 0.02 0.04 0.06 0.08 0.08 0.08 0.05 0.06 0.08 0.13 0.17 0.06 0.04
0.00 0.00 0.00 0.01 0.01 0.01 0.01 0.01 0.02 0.02 0.01 0.01 0.01 0.01 0.01 0.01 0.01 0.01 0.01 0.01 0.01 0.01 0.01 0.01 0.02 0.01 0.01 0.02 0.02 0.02 0.03 0.04 0.06 0.13 0.19 0.12 0.03 0.05 0.08 0.12 0.11 0.04 0.04
0.00 0.00 0.00 0.01 0.01 0.01 0.01 0.01 0.01 0.01 0.01 0.01 0.01 0.01 0.01 0.01 0.01 0.01 0.01 0.01 0.01 0.01 0.01 0.02 0.02 0.01 0.02 0.03 0.03 0.03 0.05 0.07 0.10 0.24 0.27 0.09 0.03 0.03 0.05 0.06 0.06 0.06 0.05
0.01 0.00 0.01 0.01 0.01 0.00 0.00 0.00 0.01 0.01 0.01 0.01 0.01 0.01 0.01 0.01 0.02 0.02 0.02 0.01 0.01 0.01 0.01 0.02 0.02 0.02 0.01 0.02 0.03 0.04 0.04 0.06 0.14 0.29 0.19 0.13 0.09 0.04 0.04 0.05 0.07 0.07 0.06
0.01 0.01 0.01 0.01 0.01 0.00 0.00 0.01 0.01 0.01 0.01 0.01 0.01 0.01 0.01 0.02 0.03 0.02 0.02 0.01 0.01 0.01 0.02 0.02 0.03 0.02 0.01 0.01 0.02 0.03 0.03 0.05 0.16 0.16 0.12 0.15 0.09 0.04 0.06 0.07 0.06 0.05 0.04
0.04 0.02 0.01 0.01 0.01 0.01 0.01 0.01 0.01 0.01 0.01 0.01 0.01 0.01 0.02 0.02 0.02 0.02 0.01 0.01 0.01 0.01 0.02 0.02 0.02 0.01 0.01 0.01 0.01 0.02 0.02 0.04 0.14 0.09 0.09 0.14 0.07 0.04 0.07 0.07 0.08 0.06 0.04
0.10 0.12 0.04 0.03 0.03 0.02 0.01 0.01 0.01 0.01 0.01 0.01 0.01 0.02 0.02 0.02 0.01 0.02 0.01 0.01 0.01 0.01 0.01 0.01 0.01 0.01 0.01 0.01 0.01 0.01 0.01 0.03 0.06 0.04 0.09 0.11 0.03 0.03 0.05 0.05 0.05 0.05 0.03
0.16 0.25 0.11 0.05 0.04 0.04 0.04 0.03 0.02 0.02 0.01 0.01 0.02 0.01 0.01 0.01 0.01 0.01 0.01 0.00 0.01 0.01 0.01 0.01 0.01 0.01 0.01 0.01 0.01 0.01 0.01 0.03 0.05 0.03 0.06 0.09 0.02 0.03 0.03 0.05 0.05 0.05 0.03
0.29 0.27 0.14 0.07 0.05 0.04 0.04 0.04 0.03 0.02 0.01 0.02 0.02 0.01 0.01 0.01 0.01 0.01 0.01 0.00 0.00 0.00 0.00 0.01 0.01 0.00 0.00 0.00 0.00 0.00 0.01 0.02 0.04 0.03 0.05 0.04 0.01 0.02 0.03 0.04 0.05 0.05 0.05
0.35 0.22 0.10 0.08 0.05 0.05 0.05 0.05 0.05 0.04 0.03 0.02 0.02 0.01 0.03 0.07 0.04 0.03 0.02 0.00 0.00 0.00 0.00 0.00 0.00 0.00 0.00 0.00 0.00 0.00 0.01 0.02 0.06 0.09 0.06 0.02 0.01 0.01 0.02 0.03 0.05 0.06 0.06
0.26 0.25 0.11 0.09 0.07 0.07 0.07 0.06 0.10 0.09 0.06 0.08 0.08 0.04 0.09 0.14 0.12 0.07 0.02 0.00 0.01 0.00 0.01 0.01 0.01 0.00 0.01 0.01 0.01 0.01 0.01 0.03 0.07 0.06 0.03 0.02 0.01 0.01 0.02 0.03 0.04 0.04 0.06
0.15 0.19 0.15 0.11 0.07 0.07 0.11 0.10 0.10 0.13 0.12 0.15 0.13 0.08 0.11 0.09 0.06 0.05 0.04 0.03 0.02 0.02 0.03 0.02 0.01 0.01 0.02 0.04 0.03 0.02 0.02 0.02 0.03 0.03 0.03 0.02 0.02 0.02 0.03 0.04 0.03 0.05 0.05
0.11 0.14 0.20 0.15 0.12 0.13 0.14 0.15 0.11 0.10 0.12 0.13 0.13 0.09 0.07 0.08 0.08 0.07 0.07 0.06 0.06 0.05 0.06 0.05 0.03 0.02 0.03 0.02 0.01 0.02 0.01 0.02 0.04 0.05 0.04 0.02 0.02 0.03 0.03 0.03 0.03 0.05 0.04
0.15 0.12 0.20 0.19 0.20 0.20 0.18 0.18 0.15 0.12 0.12 0.11 0.10 0.09 0.06 0.06 0.07 0.06 0.04 0.04 0.04 0.03 0.04 0.03 0.02 0.02 0.02 0.01 0.01 0.01 0.01 0.03 0.05 0.05 0.06 0.03 0.02 0.02 0.02 0.02 0.03 0.03 0.03
0.19 0.15 0.16 0.16 0.19 0.19 0.15 0.16 0.17 0.10 0.13 0.14 0.10 0.07 0.04 0.04 0.06 0.05 0.04 0.03 0.03 0.03 0.02 0.02 0.01 0.02 0.02 0.01 0.01 0.01 0.01 0.02 0.03 0.07 0.07 0.04 0.02 0.01 0.02 0.02 0.02 0.02 0.02
0.19 0.20 0.22 0.16 0.16 0.15 0.14 0.11 0.10 0.08 0.08 0.09 0.09 0.06 0.03 0.04 0.05 0.04 0.04 0.03 0.03 0.02 0.02 0.01 0.01 0.01 0.02 0.01 0.02 0.02 0.02 0.02 0.03 0.05 0.05 0.04 0.03 0.03 0.02 0.02 0.03 0.03 0.03
0.19 0.24 0.23 0.16 0.15 0.13 0.13 0.13 0.11 0.08 0.09 0.08 0.06 0.05 0.04 0.05 0.04 0.04 0.04 0.03 0.02 0.02 0.02 0.02 0.01 0.01 0.02 0.02 0.02 0.03 0.03 0.02 0.02 0.02 0.03 0.03 0.04 0.06 0.04 0.02 0.02 0.02 0.03
0.19 0.23 0.21 0.21 0.19 0.17 0.15 0.14 0.12 0.11 0.09 0.06 0.06 0.05 0.05 0.05 0.03 0.03 0.03 0.03 0.01 0.01 0.01 0.01 0.01 0.01 0.02 0.03 0.02 0.02 0.03 0.02 0.02 0.01 0.01 0.02 0.03 0.05 0.04 0.02 0.01 0.02 0.02
0.19 0.22 0.20 0.20 0.22 0.21 0.19 0.17 0.16 0.12 0.09 0.07 0.06 0.06 0.04 0.04 0.03 0.03 0.03 0.02 0.01 0.01 0.00 0.00 0.01 0.02 0.03 0.02 0.01 0.02 0.03 0.03 0.02 0.02 0.01 0.01 0.02 0.02 0.02 0.02 0.02 0.01 0.01
0.18 0.20 0.22 0.20 0.20 0.20 0.18 0.13 0.12 0.09 0.08 0.06 0.05 0.03 0.02 0.02 0.02 0.02 0.02 0.02 0.01 0.01 0.01 0.01 0.01 0.01 0.01 0.01 0.03 0.04 0.04 0.03 0.02 0.02 0.01 0.01 0.01 0.02 0.02 0.03 0.03 0.02 0.02
0.12 0.13 0.16 0.18 0.17 0.17 0.17 0.15 0.14 0.13 0.07 0.04 0.04 0.04 0.02 0.02 0.01 0.01 0.02 0.01 0.01 0.02 0.01 0.01 0.01 0.01 0.01 0.01 0.02 0.04 0.05 0.05 0.03 0.01 0.01 0.01 0.01 0.02 0.02 0.02 0.02 0.02 0.02
0.11 0.10 0.12 0.15 0.15 0.18 0.20 0.17 0.17 0.19 0.15 0.09 0.05 0.04 0.03 0.02 0.01 0.02 0.02 0.01 0.01 0.01 0.01 0.01 0.01 0.01 0.01 0.01 0.01 0.02 0.04 0.05 0.04 0.02 0.01 0.01 0.01 0.01 0.01 0.01 0.01 0.01 0.01
0.07 0.08 0.12 0.14 0.16 0.17 0.19 0.17 0.14 0.10 0.11 0.09 0.05 0.04 0.03 0.02 0.01 0.01 0.01 0.01 0.01 0.01 0.02 0.01 0.00 0.00 0.01 0.01 0.01 0.01 0.01 0.02 0.03 0.03 0.01 0.01 0.01 0.01 0.01 0.01 0.01 0.01 0.01
0.07 0.08 0.10 0.13 0.15 0.15 0.15 0.16 0.19 0.16 0.12 0.08 0.08 0.06 0.05 0.02 0.01 0.01 0.01 0.01 0.01 0.01 0.01 0.01 0.01 0.00 0.00 0.01 0.00 0.00 0.00 0.01 0.01 0.02 0.02 0.02 0.01 0.01 0.01 0.01 0.01 0.01 0.01
0.05 0.06 0.09 0.12 0.13 0.14 0.14 0.13 0.17 0.16 0.14 0.13 0.10 0.07 0.04 0.02 0.01 0.01 0.01 0.02 0.01 0.01 0.01 0.01 0.01 0.00 0.00 0.00 0.00 0.00 0.01 0.01 0.01 0.01 0.01 0.01 0.01 0.01 0.01 0.01 0.01 0.00 0.00
MSLP
1008.07 1008.25 1008.59 1009.06 1009.60 1010.14 1010.61 1010.97 1011.22 1011.39 1011.54 1011.73 1011.98 1012.32 1012.72 1013.14 1013.51 1013.81 1014.00 1014.09 1014.11 1014.10 1014.10 1014.15 1014.24 1014.37 1014.53 1014.67 1014.80 1014.90 1014.98 1015.06 1015.17 1015.32 1015.51 1015.74 1015.98 1016.21 1016.43 1016.61 1016.77 1016.91 1017.04
1007.81 1008.14 1008.63 1009.24 1009.87 1010.45 1010.92 1011.25 1011.45 1011.58 1011.70 1011.87 1012.14 1012.51 1012.94 1013.39 1013.78 1014.08 1014.25 1014.31 1014.29 1014.25 1014.22 1014.25 1014.34 1014.48 1014.66 1014.84 1015.00 1015.14 1015.26 1015.38 1015.52 1015.70 1015.91 1016.15 1016.39 1016.63 1016.85 1017.04 1017.19 1017.33 1017.47
1007.54 1008.02 1008.65 1009.37 1010.09 1010.73 1011.22 1011.54 1011.73 1011.83 1011.93 1012.09 1012.35 1012.72 1013.15 1013.58 1013.96 1014.24 1014.39 1014.42 1014.39 1014.33 1014.30 1014.34 1014.44 1014.60 1014.80 1014.99 1015.18 1015.34 1015.48 1015.64 1015.80 1016.01 1016.24 1016.50 1016.76 1017.01 1017.23 1017.41 1017.57 1017.72 1017.86
1007.28 1007.89 1008.64 1009.47 1010.28 1010.97 1011.49 1011.83 1012.02 1012.12 1012.21 1012.36 1012.60 1012.94 1013.34 1013.74 1014.08 1014.33 1014.45 1014.48 1014.46 1014.42 1014.42 1014.48 1014.60 1014.78 1014.97 1015.17 1015.35 1015.50 1015.66 1015.82 1016.02 1016.25 1016.52 1016.80 1017.08 1017.34 1017.56 1017.74 1017.90 1018.05 1018.20
1007.08 1007.78 1008.64 1009.56 1010.43 1011.18 1011.74 1012.10 1012.30 1012.41 1012.50 1012.64 1012.87 1013.17 1013.52 1013.88 1014.18 1014.39 1014.51 1014.55 1014.56 1014.57 1014.62 1014.72 1014.87 1015.05 1015.23 1015.40 1015.54 1015.67 1015.80 1015.97 1016.18 1016.44 1016.74 1017.05 1017.36 1017.62 1017.84 1018.03 1018.18 1018.33 1018.49
1006.96 1007.75 1008.67 1009.65 1010.56 1011.34 1011.93 1012.32 1012.54 1012.67 1012.77 1012.92 1013.13 1013.40 1013.71 1014.02 1014.27 1014.46 1014.58 1014.66 1014.72 1014.80 1014.91 1015.07 1015.24 1015.42 1015.56 1015.68 1015.76 1015.84 1015.93 1016.08 1016.30 1016.59 1016.92 1017.27 1017.59 1017.87 1018.10 1018.27 1018.42 1018.57 1018.73
1006.96 1007.79 1008.76 1009.75 1010.68 1011.47 1012.06 1012.46 1012.71 1012.86 1013.00 1013.15 1013.36 1013.62 1013.90 1014.17 1014.40 1014.57 1014.71 1014.82 1014.95 1015.10 1015.28 1015.48 1015.67 1015.82 1015.93 1015.97 1015.98 1015.99 1016.04 1016.17 1016.39 1016.70 1017.07 1017.45 1017.80 1018.10 1018.32 1018.49 1018.62 1018.76 1018.93
1007.06 1007.92 1008.89 1009.87 1010.78 1011.53 1012.11 1012.51 1012.78 1012.97 1013.13 1013.32 1013.55 1013.81 1014.08 1014.33 1014.54 1014.72 1014.87 1015.02 1015.20 1015.40 1015.64 1015.87 1016.06 1016.20 1016.24 1016.22 1016.15 1016.09 1016.10 1016.20 1016.43 1016.77 1017.18 1017.60 1017.99 1018.30 1018.53 1018.69 1018.80 1018.93 1019.09
1007.24 1008.11 1009.05 1009.98 1010.83 1011.53 1012.07 1012.46 1012.73 1012.96 1013.17 1013.41 1013.68 1013.97 1014.25 1014.49 1014.70 1014.87 1015.03 1015.20 1015.40 1015.64 1015.90 1016.15 1016.34 1016.44 1016.44 1016.35 1016.23 1016.12 1016.09 1016.19 1016.42 1016.79 1017.24 1017.71 1018.14 1018.48 1018.72 1018.87 1018.98 1019.08 1019.22
1007.44 1008.28 1009.18 1010.04 1010.81 1011.44 1011.93 1012.29 1012.58 1012.84 1013.11 1013.41 1013.74 1014.07 1014.37 1014.63 1014.83 1014.99 1015.14 1015.31 1015.51 1015.76 1016.02 1016.26 1016.43 1016.51 1016.47 1016.35 1016.19 1016.05 1016.01 1016.11 1016.37 1016.77 1017.26 1017.78 1018.24 1018.62 1018.88 1019.05 1019.15 1019.23 1019.36
1007.57 1008.39 1009.24 1010.03 1010.71 1011.26 1011.69 1012.03 1012.32 1012.62 1012.95 1013.33 1013.72 1014.10 1014.44 1014.71 1014.91 1015.06 1015.18 1015.32 1015.50 1015.72 1015.96 1016.17 1016.33 1016.39 1016.34 1016.21 1016.05 1015.92 1015.88 1016.00 1016.28 1016.72 1017.25 1017.80 1018.31 1018.72 1019.01 1019.20 1019.30 1019.39 1019.49
1007.57 1008.39 1009.18 1009.91 1010.52 1011.00 1011.38 1011.70 1012.00 1012.34 1012.73 1013.17 1013.64 1014.07 1014.45 1014.73 1014.93 1015.06 1015.15 1015.24 1015.38 1015.55 1015.75 1015.95 1016.09 1016.15 1016.11 1016.00 1015.87 1015.77 1015.76 1015.91 1016.21 1016.66 1017.21 1017.78 1018.32 1018.76 1019.09 1019.31 1019.44 1019.53 1019.64
1007.43 1008.23 1009.00 1009.68 1010.24 1010.68 1011.03 1011.34 1011.66 1012.04 1012.48 1012.98 1013.50 1013.99 1014.40 1014.70 1014.89 1015.00 1015.06 1015.11 1015.20 1015.32 1015.49 1015.66 1015.80 1015.88 1015.88 1015.81 1015.73 1015.68 1015.71 1015.87 1016.18 1016.63 1017.17 1017.74 1018.28 1018.75 1019.11 1019.36 1019.53 1019.66 1019.77
1007.14 1007.94 1008.70 1009.36 1009.90 1010.33 1010.68 1011.00 1011.35 1011.76 1012.24 1012.79 1013.34 1013.86 1014.29 1014.61 1014.81 1014.91 1014.94 1014.97 1015.02 1015.11 1015.25 1015.41 1015.56 1015.67 1015.72 1015.72 1015.70 1015.70 1015.77 1015.94 1016.24 1016.65 1017.15 1017.68 1018.21 1018.67 1019.05 1019.35 1019.56 1019.73 1019.87
1006.74 1007.56 1008.33 1009.00 1009.56 1010.01 1010.38 1010.74 1011.11 1011.55 1012.06 1012.62 1013.19 1013.72 1014.16 1014.50 1014.71 1014.81 1014.85 1014.87 1014.91 1014.99 1015.12 1015.28 1015.45 1015.60 1015.71 1015.78 1015.83 1015.88 1015.97 1016.13 1016.39 1016.74 1017.16 1017.63 1018.10 1018.54 1018.92 1019.25 1019.51 1019.72 1019.90
1006.32 1007.16 1007.96 1008.66 1009.25 1009.75 1010.18 1010.58 1010.99 1011.44 1011.95 1012.50 1013.06 1013.58 1014.03 1014.37 1014.60 1014.74 1014.81 1014.85 1014.91 1015.00 1015.14 1015.32 1015.51 1015.70 1015.86 1015.99 1016.09 1016.18 1016.28 1016.43 1016.62 1016.89 1017.21 1017.58 1017.96 1018.35 1018.72 1019.05 1019.35 1019.61 1019.84
1005.97 1006.81 1007.63 1008.37 1009.02 1009.59 1010.08 1010.54 1010.98 1011.45 1011.94 1012.46 1012.98 1013.47 1013.90 1014.25 1014.51 1014.69 1014.81 1014.91 1015.01 1015.14 1015.30 1015.49 1015.71 1015.93 1016.13 1016.30 1016.44 1016.56 1016.66 1016.77 1016.90 1017.07 1017.28 1017.53 1017.82 1018.13 1018.46 1018.79 1019.11 1019.40 1019.68
1005.75 1006.57 1007.39 1008.17 1008.88 1009.51 1010.08 1010.59 1011.07 1011.54 1012.01 1012.48 1012.94 1013.38 1013.79 1014.14 1014.43 1014.67 1014.86 1015.03 1015.19 1015.36 1015.55 1015.76 1015.99 1016.22 1016.44 1016.64 1016.80 1016.94 1017.04 1017.12 1017.19 1017.27 1017.37 1017.51 1017.69 1017.92 1018.18 1018.48 1018.80 1019.12 1019.42
1005.69 1006.47 1007.26 1008.05 1008.80 1009.50 1010.13 1010.70 1011.22 1011.69 1012.13 1012.55 1012.95 1013.33 1013.70 1014.05 1014.37 1014.67 1014.93 1015.17 1015.40 1015.61 1015.82 1016.04 1016.26 1016.49 1016.71 1016.92 1017.10 1017.24 1017.34 1017.41 1017.44 1017.46 1017.48 1017.52 1017.60 1017.73 1017.93 1018.18 1018.48 1018.79 1019.11
1005.77 1006.47 1007.21 1007.98 1008.74 1009.49 1010.18 1010.81 1011.37 1011.85 1012.27 1012.64 1012.98 1013.31 1013.64 1013.98 1014.33 1014.67 1015.00 1015.31 1015.59 1015.84 1016.07 1016.28 1016.48 1016.68 1016.89 1017.09 1017.28 1017.44 1017.56 1017.63 1017.65 1017.63 1017.60 1017.56 1017.56 1017.61 1017.74 1017.93 1018.18 1018.48 1018.78
1005.95 1006.54 1007.19 1007.91 1008.66 1009.43 1010.17 1010.86 1011.46 1011.97 1012.39 1012.73 1013.03 1013.32 1013.62 1013.95 1014.31 1014.68 1015.07 1015.43 1015.75 1016.03 1016.26 1016.45 1016.62 1016.79 1016.96 1017.15 1017.34 1017.52 1017.67 1017.77 1017.82 1017.80 1017.74 1017.66 1017.60 1017.58 1017.63 1017.76 1017.96 1018.21 1018.49
1006.16 1006.61 1007.16 1007.79 1008.51 1009.28 1010.06 1010.80 1011.46 1012.01 1012.45 1012.80 1013.08 1013.34 1013.62 1013.94 1014.31 1014.71 1015.13 1015.52 1015.88 1016.16 1016.39 1016.56 1016.69 1016.82 1016.97 1017.14 1017.34 1017.54 1017.73 1017.88 1017.96 1017.97 1017.92 1017.82 1017.72 1017.65 1017.63 1017.68 1017.81 1018.02 1018.26
1006.31 1006.63 1007.05 1007.60 1008.26 1009.02 1009.83 1010.62 1011.34 1011.96 1012.45 1012.82 1013.12 1013.38 1013.65 1013.97 1014.34 1014.75 1015.19 1015.61 1015.97 1016.27 1016.48 1016.63 1016.73 1016.83 1016.95 1017.11 1017.31 1017.53 1017.76 1017.96 1018.09 1018.14 1018.11 1018.02 1017.90 1017.78 1017.71 1017.69 1017.76 1017.90 1018.09
1006.36 1006.58 1006.88 1007.33 1007.93 1008.67 1009.49 1010.33 1011.13 1011.82 1012.38 1012.81 1013.15 1013.43 1013.71 1014.02 1014.39 1014.81 1015.25 1015.68 1016.06 1016.36 1016.57 1016.70 1016.79 1016.86 1016.96 1017.10 1017.31 1017.55 1017.81 1018.04 1018.22 1018.31 1018.31 1018.23 1018.10 1017.95 1017.82 1017.75 1017.75 1017.83 1017.97
1006.33 1006.46 1006.67 1007.03 1007.57 1008.28 1009.11 1010.00 1010.86 1011.63 1012.27 1012.77 1013.16 1013.47 1013.76 1014.08 1014.45 1014.86 1015.31 1015.74 1016.13 1016.43 1016.65 1016.78 1016.87 1016.93 1017.02 1017.15 1017.35 1017.59 1017.86 1018.12 1018.32 1018.44 1018.46 1018.39 1018.26 1018.08 1017.92 1017.80 1017.75 1017.77 1017.87
1006.25 1006.33 1006.48 1006.78 1007.27 1007.95 1008.78 1009.69 1010.60 1011.44 1012.15 1012.72 1013.15 1013.51 1013.82 1014.14 1014.50 1014.91 1015.34 1015.78 1016.17 1016.49 1016.72 1016.87 1016.96 1017.03 1017.11 1017.23 1017.42 1017.65 1017.91 1018.16 1018.37 1018.49 1018.53 1018.46 1018.33 1018.15 1017.96 1017.81 1017.71 1017.68 1017.74
Thickness
5808 5802 5796 5794 5792 5790 5788 5786 5784 5781 5779 5777 5775 5773 5772 5770 5768 5767 5766 5764 5763 5762 5760 5759 5758 5757 5756 5755 5754 5753 5752 5750 5749 5748 5746 5745 5743 5742 5741 5740 5740 5738 5737
5811 5801 5795 5792 5790 5788 5786 5784 5782 5779 5777 5775 5773 5771 5770 5768 5766 5765 5764 5762 5761 5760 5759 5758 5757 5755 5754 5753 5752 5751 5749 5748 5747 5745 5744 5742 5741 5740 5739 5739 5738 5735 5735
5809 5800 5794 5790 5788 5786 5784 5782 5779 5777 5775 5773 5771 5769 5767 5766 5764 5763 5762 5760 5759 5758 5757 5756 5755 5753 5752 5751 5750 5749 5748 5746 5745 5743 5742 5741 5739 5737 5737 5736 5735 5733 5733
5807 5799 5793 5788 5785 5783 5781 5780 5777 5775 5773 5771 5769 5767 5765 5764 5762 5761 5759 5758 5757 5756 5755 5754 5753 5751 5750 5749 5748 5747 5746 5744 5743 5741 5740 5740 5738 5735 5734 5734 5732 5732 5731
5807 5798 5790 5786 5783 5781 5779 5777 5775 5773 5771 5769 5767 5765 5764 5762 5760 5759 5757 5756 5755 5754 5753 5752 5751 5750 5748 5747 5746 5745 5744 5743 5741 5740 5739 5738 5735 5734 5732 5731 5731 5730 5729
5804 5796 5787 5783 5780 5778 5776 5774 5772 5771 5769 5767 5765 5763 5761 5760 5759 5757 5756 5754 5753 5752 5751 5750 5749 5747 5746 5745 5745 5744 5743 5742 5741 5740 5737 5735 5733 5732 5731 5730 5729 5728 5727
5801 5793 5784 5780 5777 5774 5773 5771 5770 5768 5766 5765 5763 5761 5760 5758 5756 5755 5753 5752 5751 5750 5749 5747 5746 5745 5744 5744 5743 5742 5742 5742 5742 5740 5737 5734 5732 5730 5729 5728 5727 5726 5725
5800 5790 5779 5775 5773 5771 5769 5768 5766 5765 5764 5762 5761 5759 5757 5756 5754 5753 5751 5750 5748 5747 5746 5745 5744 5743 5743 5742 5742 5741 5741 5741 5742 5741 5736 5733 5731 5729 5728 5726 5726 5725 5724
5798 5786 5776 5772 5769 5767 5766 5764 5763 5762 5761 5759 5758 5757 5755 5754 5753 5751 5750 5748 5747 5745 5744 5744 5743 5742 5741 5740 5740 5741 5741 5741 5742 5739 5735 5731 5729 5728 5726 5725 5724 5724 5723
5792 5783 5775 5771 5768 5765 5763 5761 5760 5759 5758 5757 5756 5755 5754 5752 5751 5750 5748 5747 5745 5744 5743 5742 5741 5740 5740 5739 5740 5740 5740 5741 5742 5738 5734 5730 5728 5726 5725 5724 5723 5723 5722
5784 5779 5776 5772 5767 5764 5762 5759 5757 5756 5755 5754 5753 5753 5752 5752 5750 5749 5747 5745 5744 5743 5742 5741 5741 5740 5739 5739 5739 5739 5740 5741 5740 5737 5733 5729 5727 5725 5724 5723 5722 5722 5721
5775 5773 5773 5771 5767 5765 5763 5758 5756 5755 5753 5753 5753 5752 5752 5752 5750 5749 5746 5744 5743 5742 5741 5741 5740 5739 5739 5739 5739 5739 5740 5740 5738 5735 5731 5729 5727 5725 5723 5722 5722 5721 5720
5775 5773 5771 5769 5767 5765 5762 5757 5756 5755 5753 5753 5753 5752 5752 5752 5750 5748 5746 5743 5743 5742 5742 5741 5740 5741 5741 5742 5741 5740 5741 5741 5739 5735 5730 5728 5726 5724 5723 5721 5720 5720 5719
5774 5771 5768 5766 5764 5763 5760 5758 5756 5755 5753 5753 5752 5752 5752 5752 5751 5749 5747 5745 5744 5744 5743 5743 5743 5743 5743 5742 5741 5740 5740 5739 5737 5733 5729 5726 5725 5723 5722 5720 5720 5719 5718
5770 5766 5764 5762 5760 5759 5758 5756 5755 5754 5753 5753 5751 5751 5752 5751 5750 5749 5748 5747 5747 5746 5744 5743 5743 5742 5742 5741 5741 5740 5738 5736 5734 5732 5728 5726 5724 5722 5721 5720 5719 5718 5717
5768 5763 5761 5759 5757 5756 5754 5753 5753 5754 5752 5752 5752 5751 5751 5750 5749 5748 5747 5747 5746 5746 5745 5743 5743 5741 5740 5740 5740 5739 5738 5736 5733 5731 5728 5725 5723 5721 5720 5719 5718 5717 5717
5766 5761 5758 5755 5755 5753 5752 5751 5753 5753 5753 5752 5751 5750 5749 5749 5748 5747 5746 5746 5746 5745 5744 5743 5742 5741 5740 5739 5738 5737 5736 5735 5733 5731 5728 5725 5723 5721 5720 5719 5718 5717 5716
5764 5759 5756 5755 5752 5750 5749 5749 5751 5753 5752 5751 5749 5748 5747 5747 5746 5746 5746 5746 5745 5746 5744 5743 5743 5741 5739 5738 5736 5736 5735 5734 5733 5731 5729 5727 5725 5722 5720 5719 5718 5717 5716
5764 5757 5753 5752 5749 5747 5747 5748 5750 5750 5750 5750 5748 5747 5746 5746 5745 5745 5745 5744 5745 5745 5745 5744 5741 5740 5737 5737 5736 5735 5735 5734 5733 5732 5731 5729 5727 5725 5722 5719 5718 5717 5716
5762 5756 5752 5749 5747 5745 5745 5745 5747 5747 5748 5748 5747 5746 5745 5744 5744 5745 5744 5743 5745 5744 5743 5742 5740 5739 5737 5736 5737 5735 5735 5734 5733 5733 5732 5731 5729 5727 5724 5722 5719 5717 5717
5760 5755 5750 5747 5745 5744 5742 5742 5742 5742 5744 5746 5746 5745 5744 5744 5743 5743 5744 5743 5743 5742 5742 5741 5739 5737 5736 5737 5733 5730 5732 5734 5734 5733 5732 5732 5731 5729 5726 5724 5721 5720 5718
5759 5754 5750 5746 5745 5745 5743 5743 5743 5743 5744 5745 5745 5744 5744 5743 5742 5743 5743 5742 5742 5741 5741 5740 5738 5735 5736 5737 5732 5726 5722 5724 5730 5735 5733 5731 5731 5730 5728 5726 5724 5722 5720
5760 5755 5752 5748 5746 5745 5744 5743 5742 5740 5740 5741 5740 5741 5743 5742 5742 5743 5742 5743 5742 5741 5739 5738 5738 5736 5733 5736 5736 5729 5721 5717 5722 5729 5732 5732 5731 5730 5729 5728 5726 5724 5722
5762 5759 5755 5751 5748 5746 5744 5742 5740 5737 5736 5738 5739 5740 5741 5741 5741 5741 5741 5741 5741 5741 5739 5738 5738 5738 5735 5733 5735 5735 5732 5729 5722 5719 5726 5730 5731 5730 5729 5729 5728 5726 5723
5767 5761 5757 5752 5748 5747 5745 5743 5741 5740 5739 5740 5740 5739 5739 5740 5740 5741 5740 5739 5739 5739 5739 5738 5737 5737 5736 5734 5733 5734 5733 5732 5731 5723 5718 5723 5727 5730 5730 5729 5729 5727 5725
5768 5764 5758 5752 5748 5747 5745 5745 5743 5741 5740 5739 5738 5736 5737 5738 5739 5739 5739 5738 5737 5738 5737 5736 5736 5735 5734 5734 5733 5734 5733 5730 5728 5727 5722 5722 5723 5727 5730 5730 5729 5728 5726